Regional Weather Roundup
Issued by NWS Little Rock, AR

Home | Current Version | Previous Version | Graphics & Text | Print | Product List | Glossary On
Versions: 1 2 3 4 5 6 7 8 9 10 11 12 13 14 15 16 17 18 19 20 21 22 23 24 25 26 27 28 29 30 31 32 33 34 35 36 37 38 39 40 41 42 43 44 45 46 47 48 49 50
516
ASUS44 KLZK 121005
RWRLZK

WEATHER ROUNDUP FOR ARKANSAS
NATIONAL WEATHER SERVICE LITTLE ROCK AR
400 AM CST FRI FEB 12 2016

NOTE: "FAIR" INDICATES FEW OR NO CLOUDS BELOW 12,000 FEET WITH NO
SIGNIFICANT WEATHER AND/OR OBSTRUCTIONS TO VISIBILITY.

ARZ001-003-010-029-121100-
NORTHWEST ARKANSAS

CITY           SKY/WX    TMP DP  RH WIND       PRES   REMARKS
FAYETTEVILLE   CLEAR     28  25  88 S8        30.18R WCI  20
FORT SMITH     CLEAR     36  23  59 NE6       30.21R
HARRISON       CLEAR     38  25  59 W3        30.13F
BENTONVILLE    CLEAR     30  21  69 SW3       30.18R
ROGERS         CLEAR     34  25  69 SW7       30.17R WCI  28
SILOAM SPGS    CLEAR     32  19  59 CALM      30.19R
HIGHFILL       CLEAR     35  26  69 SW3       30.17R
$$

ARZ004-005-016-121100-
NORTH CENTRAL ARKANSAS

CITY           SKY/WX    TMP DP  RH WIND       PRES   REMARKS
BATESVILLE     PTCLDY    28  21  74 CALM      30.18F
FLIPPIN        CLEAR     30  18  59 CALM      30.13S
MTN HOME       CLEAR     30  22  72 CALM      30.14S
$$

ARZ040-041-121100-
WEST CENTRAL ARKANSAS

CITY           SKY/WX    TMP DP  RH WIND       PRES   REMARKS
MENA           CLEAR     32  32 100 CALM      30.20R
MOUNT IDA      CLEAR     30  26  85 CALM      30.18R
$$

ARZ009-017-025-026-028-121100-
NORTHEAST ARKANSAS

CITY           SKY/WX    TMP DP  RH WIND       PRES   REMARKS
CORNING        FAIR      32  25  74 NE6       30.20S WCI  26
JONESBORO      MOCLDY    30  27  88 CALM      30.17F
NEWPORT        CLEAR     30  25  82 W3        30.19F
WALNUT RIDGE   CLOUDY    30  23  74 CALM      30.20R
BLYTHEVILLE    CLOUDY    36  26  67 SE5       30.15F
$$

ARZ022-023-033-042-044-121100-
CENTRAL ARKANSAS

CITY           SKY/WX    TMP DP  RH WIND       PRES   REMARKS
LITTLE ROCK    CLEAR     36  25  64 NW5       30.21R
N LITTLE ROCK    N/A     34  27  76 W6        30.21R WCI  29
JACKSONVILLE   CLEAR     29  24  79 SW2       30.19R
SEARCY         CLEAR     33  25  72 NW5       30.22R WCI  29
HOT SPRINGS    CLEAR     34  26  72 CALM      30.21R
RUSSELLVILLE   CLEAR     29  24  82 CALM      30.20F
CLINTON        FAIR      27  25  93 CALM      30.21S
$$

ARZ036-121100-
EAST ARKANSAS

CITY           SKY/WX    TMP DP  RH WIND       PRES   REMARKS
WEST MEMPHIS   CLEAR     32  29  88 CALM      30.16F
$$

ARZ050-053-066-070-073-121100-
SOUTHWEST ARKANSAS

CITY           SKY/WX    TMP DP  RH WIND       PRES   REMARKS
ARKADELPHIA    FAIR      36  28  73 N3        30.22R
CAMDEN         CLEAR     32  27  80 CALM      30.19F
TEXARKANA      CLEAR     38  29  70 NE7       30.19R
EL DORADO      CLEAR     37  28  70 N5        30.18R
DE QUEEN       CLEAR     34  28  79 CALM      30.20R
$$

ARZ056-057-069-121100-
SOUTHEAST ARKANSAS

CITY           SKY/WX    TMP DP  RH WIND       PRES   REMARKS
PINE BLUFF     CLEAR     32  26  78 N6        30.19S WCI  26
STUTTGART      PTCLDY    32  25  74 N9        30.20R WCI  24
MONTICELLO     CLEAR     38  28  67 VRB3      30.17S

$$






USA.gov is the U.S. government's official web portal to all federal, state and local government web resources and services.